Location: La Chapelle
(48.3135°N, 1.3085°W)
Time: 11:12:30
(UTC+00:00)

Cosmos 2322 Rocket - Pass Details

Date: 03 March 2021
Orbit: 832 x 852 km, 71.0° (Epoch: 10 April)

Event Time Altitude Azimuth Distance (km) Brightness Sun altitude
Rises 19:06:24 0° 209° (SSW) 3,364 5.7 -13.1°
Reaches altitude 10° 19:08:50 10° 210° (SSW) 2,435 4.9 -13.5°
Maximum altitude 19:14:25 81° 298° (WNW) 849 2.3 -14.4°
Drops below altitude 10° 19:20:04 10° 26° (NNE) 2,457 4.4 -15.3°
Sets 19:22:32 0° 28° (NNE) 3,398 5.1 -15.7°
